K7SPS-10 Weather Reports


time (UTC)temp
F
wind
direction
speed
knots
gust
knots
rain 1hr
in
rain 24hr
in
rain mn
in
humidity
%
barometer
mb
20260506004331 80 8 0.9 4.3 0.00 0.00 0.00 28 1008.4
20260506003827 80 353 2.6 5.2 0.00 0.00 0.00 27 1008.4
20260506003323 80 10 1.7 7.8 0.00 0.00 0.00 27 1008.2
20260506002820 80 15 0.9 5.2 0.00 0.00 0.00 27 1008.4
20260506002316 80 30 2.6 6.1 0.00 0.00 0.00 26 1008.4
20260506001812 80 8 2.6 5.2 0.00 0.00 0.00 26 1007.9
20260506001310 81 14 1.7 3.5 0.00 0.00 0.00 27 1008.3
20260506000806 81 23 4.3 8.7 0.00 0.00 0.00 27 1008.4
20260506000304 81 6 2.6 5.2 0.00 0.00 0.00 26 1008.3
20260505235801 81 35 1.7 6.1 0.00 0.00 0.00 26 1008.2
20260505235258 81 289 6.1 10.4 0.00 0.00 0.00 25 1008.3
20260505234755 80 359 2.6 6.1 0.00 0.00 0.00 25 1008.4
20260505234253 81 351 2.6 4.3 0.00 0.00 0.00 25 1008.4
20260505233749 81 3 2.6 3.5 0.00 0.00 0.00 25 1008.4
20260505233247 82 36 1.7 3.5 0.00 0.00 0.00 25 1008.4
20260505232744 81 344 2.6 6.1 0.00 0.00 0.00 26 1008.5
20260505232242 82 313 3.5 7.0 0.00 0.00 0.00 23 1008.5
20260505231738 81 357 7.0 7.8 0.00 0.00 0.00 24 1008.5
20260505231237 81 358 0.0 6.1 0.00 0.00 0.00 26 1008.6
20260505230735 81 24 3.5 4.3 0.00 0.00 0.00 26 1008.5
20260505230231 82 302 7.8 11.3 0.00 0.00 0.00 24 1008.7
20260505225727 80 2 2.6 4.3 0.00 0.00 0.00 25 1008.5
20260505225225 81 5 2.6 5.2 0.00 0.00 0.00 24 1008.7
20260505224720 81 321 7.8 11.3 0.00 0.00 0.00 23 1008.6
20260505224218 81 25 2.6 12.2 0.00 0.00 0.00 23 1008.7
20260505223715 80 334 4.3 5.2 0.00 0.00 0.00 23 1008.8
20260505223211 80 291 10.4 12.2 0.00 0.00 0.00 23 1008.7
20260505222708 80 323 5.2 9.6 0.00 0.00 0.00 23 1008.8
20260505222203 81 292 4.3 4.3 0.00 0.00 0.00 25 1008.9
20260505221701 80 0 1.7 9.6 0.00 0.00 0.00 24 1008.9
20260505221157 80 356 2.6 13.9 0.00 0.00 0.00 24 1008.9
20260505220655 80 10 3.5 6.1 0.00 0.00 0.00 25 1009.0
20260505220153 80 29 4.3 10.4 0.00 0.00 0.00 25 1008.8
20260505215650 80 353 2.6 8.7 0.00 0.00 0.00 24 1009.2
20260505215148 79 300 4.3 14.8 0.00 0.00 0.00 24 1009.1
20260505214645 80 5 1.7 7.8 0.00 0.00 0.00 27 1009.2
20260505214142 80 19 1.7 12.2 0.00 0.00 0.00 25 1009.3
20260505213640 80 51 2.6 7.8 0.00 0.00 0.00 28 1009.3
20260505213137 80 334 4.3 8.7 0.00 0.00 0.00 25 1009.2
20260505212632 79 313 5.2 7.0 0.00 0.00 0.00 26 1009.6
20260505212130 80 83 2.6 6.1 0.00 0.00 0.00 28 1009.6
20260505211627 78 328 5.2 13.9 0.00 0.00 0.00 25 1009.4
20260505211124 79 315 7.8 8.7 0.00 0.00 0.00 25 1009.4
20260505210621 80 36 3.5 3.5 0.00 0.00 0.00 28 1009.3
20260505210118 79 334 5.2 9.6 0.00 0.00 0.00 25 1009.4
20260505205615 79 318 5.2 7.8 0.00 0.00 0.00 29 1009.7
20260505205113 77 242 4.3 7.8 0.00 0.00 0.00 31 1009.6
20260505204610 77 227 5.2 9.6 0.00 0.00 0.00 31 1009.6
20260505204107 78 283 7.0 8.7 0.00 0.00 0.00 31 1009.9
20260505203603 77 280 2.6 6.1 0.00 0.00 0.00 31 1010.0
20260505203101 76 255 5.2 7.8 0.00 0.00 0.00 31 1009.9
20260505202556 77 304 3.5 5.2 0.00 0.00 0.00 30 1009.9
20260505202053 76 272 2.6 6.1 0.00 0.00 0.00 33 1010.0
20260505201550 76 262 1.7 4.3 0.00 0.00 0.00 30 1010.1
20260505201048 77 199 0.9 3.5 0.00 0.00 0.00 30 1009.8
20260505200545 77 51 3.5 7.8 0.00 0.00 0.00 31 1009.9
20260505200042 77 355 1.7 5.2 0.00 0.00 0.00 34 1010.2
20260505195538 76 320 2.6 4.3 0.00 0.00 0.00 31 1010.3
20260505195036 77 28 4.3 5.2 0.00 0.00 0.00 32 1010.3
20260505194533 76 327 0.9 2.6 0.00 0.00 0.00 30 1010.3
20260505194028 75 75 4.3 7.8 0.00 0.00 0.00 31 1010.2
20260505193525 75 235 2.6 2.6 0.00 0.00 0.00 32 1010.4
20260505193023 75 127 6.1 8.7 0.00 0.00 0.00 32 1010.4
20260505192521 76 91 1.7 2.6 0.00 0.00 0.00 33 1010.5
20260505192018 75 173 2.6 3.5 0.00 0.00 0.00 34 1010.6
20260505191516 76 115 1.7 2.6 0.00 0.00 0.00 34 1010.4
20260505191014 76 122 2.6 3.5 0.00 0.00 0.00 35 1010.5
20260505190508 76 129 0.0 3.5 0.00 0.00 0.00 33 1010.5
20260505190005 75 150 2.6 2.6 0.00 0.00 0.00 34 1010.6
20260505185502 74 117 0.0 6.1 0.00 0.00 0.00 39 1010.6
20260505184958 75 192 4.3 5.2 0.00 0.00 0.00 35 1010.6
20260505184455 75 112 1.7 3.5 0.00 0.00 0.00 38 1010.6
20260505183951 74 118 2.6 2.6 0.00 0.00 0.00 38 1010.7
20260505183449 74 112 5.2 5.2 0.00 0.00 0.00 39 1010.6
20260505182945 73 209 2.6 6.1 0.00 0.00 0.00 36 1010.8
20260505182442 75 184 2.6 3.5 0.00 0.00 0.00 36 1010.8
20260505181938 74 278 0.0 4.3 0.00 0.00 0.00 39 1010.8
20260505181436 74 79 1.7 3.5 0.00 0.00 0.00 36 1010.7
20260505180933 73 154 2.6 4.3 0.00 0.00 0.00 38 1010.8
20260505180429 73 119 2.6 4.3 0.00 0.00 0.00 39 1011.0
20260505175926 72 112 4.3 5.2 0.00 0.00 0.00 40 1011.0
20260505175422 73 107 1.7 3.5 0.00 0.00 0.00 40 1010.8
20260505174918 72 111 5.2 6.1 0.00 0.00 0.00 42 1010.8
20260505174416 73 118 3.5 4.3 0.00 0.00 0.00 40 1010.9
20260505173912 72 120 2.6 6.1 0.00 0.00 0.00 41 1011.0
20260505173408 72 133 1.7 4.3 0.00 0.00 0.00 42 1010.6
20260505172905 72 112 6.1 6.1 0.00 0.00 0.00 42 1010.9
20260505172403 71 93 2.6 7.8 0.00 0.00 0.00 40 1010.8
20260505171903 72 98 2.6 4.3 0.00 0.00 0.00 44 1010.7
20260505171400 71 81 2.6 5.2 0.00 0.00 0.00 42 1010.7
20260505170856 70 107 2.6 4.3 0.00 0.00 0.00 45 1011.2
20260505170353 70 93 2.6 6.1 0.00 0.00 0.00 45 1010.8
20260505165848 70 96 3.5 6.1 0.00 0.00 0.00 44 1010.8
20260505165344 68 62 7.0 9.6 0.00 0.00 0.00 48 1010.5
20260505164840 68 105 2.6 5.2 0.00 0.00 0.00 48 1010.8
20260505164337 68 60 7.0 7.8 0.00 0.00 0.00 50 1010.9
20260505163835 68 100 6.1 8.7 0.00 0.00 0.00 49 1010.7
20260505163334 67 98 6.1 7.0 0.00 0.00 0.00 48 1010.7
20260505162832 68 106 5.2 6.1 0.00 0.00 0.00 47 1010.7
20260505162328 67 97 4.3 8.7 0.00 0.00 0.00 48 1010.6
20260505161825 67 111 2.6 5.2 0.00 0.00 0.00 47 1010.8
20260505161322 67 88 4.3 5.2 0.00 0.00 0.00 49 1010.8
20260505160819 68 103 4.3 4.3 0.00 0.00 0.00 46 1010.9
20260505160317 67 93 2.6 5.2 0.00 0.00 0.00 48 1010.7
20260505153256 66 114 2.6 4.3 0.00 0.00 0.00 50 1010.6
20260505152754 65 117 3.5 4.3 0.00 0.00 0.00 51 1010.4
20260505152250 64 104 3.5 4.3 0.00 0.00 0.00 49 1010.5
20260505151750 64 98 3.5 6.1 0.00 0.00 0.00 49 1010.4
20260505151248 64 84 2.6 5.2 0.00 0.00 0.00 51 1010.5
20260505150745 64 102 2.6 3.5 0.00 0.00 0.00 52 1010.4
20260505150242 64 100 3.5 5.2 0.00 0.00 0.00 52 1010.3
20260505140212 62 119 0.9 1.7 0.00 0.00 0.00 54 1009.9
20260505130135 56 73 0.0 1.7 0.00 0.00 0.00 61 1008.7
20260505124625 57 233 2.6 2.6 0.00 0.00 0.00 60 1008.5
20260505124122 56 256 0.0 0.0 0.00 0.00 0.00 60 1008.4
20260505123617 57 240 0.0 0.9 0.00 0.00 0.00 58 1008.3
20260505123114 58 309 0.0 1.7 0.00 0.00 0.00 57 1008.1
20260505122611 58 37 0.0 1.7 0.00 0.00 0.00 57 1007.9
20260505122109 58 331 2.6 2.6 0.00 0.00 0.00 55 1007.8
20260505121604 59 304 1.7 2.6 0.00 0.00 0.00 54 1007.7
20260505121102 59 285 3.5 4.3 0.00 0.00 0.00 55 1007.7
20260505120558 59 294 3.5 3.5 0.00 0.00 0.00 56 1007.7
20260505120054 55 283 2.6 2.6 0.00 0.00 0.00 61 1007.8
20260505115548 57 216 1.7 2.6 0.00 0.00 0.00 59 1007.7
20260505115046 56 201 2.6 3.5 0.00 0.00 0.00 61 1007.7
20260505114543 57 203 3.5 4.3 0.00 0.00 0.00 58 1007.7
20260505114039 57 154 0.9 1.7 0.00 0.00 0.00 58 1007.6
20260505113536 58 124 0.0 1.7 0.00 0.00 0.00 56 1007.6
20260505113032 59 114 0.0 1.7 0.00 0.00 0.00 54 1007.4
20260505112528 60 340 0.9 2.6 0.00 0.00 0.00 53 1007.4
20260505112027 59 323 2.6 2.6 0.00 0.00 0.00 53 1007.4
20260505111520 59 31 1.7 3.5 0.00 0.00 0.00 56 1007.4
20260505111017 60 355 1.7 1.7 0.00 0.00 0.00 53 1007.3
20260505110513 60 13 0.9 2.6 0.00 0.00 0.00 53 1007.3
20260505101945 63 315 3.5 6.1 0.00 0.00 0.00 47 1006.7
20260505101444 64 325 6.1 7.8 0.00 0.00 0.00 46 1007.0
20260505100940 64 293 5.2 7.0 0.00 0.00 0.00 45 1006.7
20260505100437 64 302 5.2 7.0 0.00 0.00 0.00 44 1006.8
20260505095933 64 276 6.1 7.0 0.00 0.00 0.00 45 1006.8
20260505095430 63 296 3.5 4.3 0.00 0.00 0.00 45 1006.9
20260505094926 63 275 2.6 4.3 0.00 0.00 0.00 46 1006.6
20260505094423 62 223 3.5 4.3 0.00 0.00 0.00 47 1006.8
20260505093919 62 271 3.5 3.5 0.00 0.00 0.00 47 1006.6
20260505093416 64 286 3.5 5.2 0.00 0.00 0.00 45 1006.5
20260505092914 64 298 4.3 6.1 0.00 0.00 0.00 44 1006.6
20260505092412 65 283 3.5 5.2 0.00 0.00 0.00 42 1006.3
20260505091909 65 305 6.1 7.0 0.00 0.00 0.00 41 1006.7
20260505091406 65 256 6.1 8.7 0.00 0.00 0.00 41 1006.3
20260505090904 64 278 5.2 5.2 0.00 0.00 0.00 43 1006.3
20260505090402 64 285 4.3 7.8 0.00 0.00 0.00 42 1006.3
20260505085859 65 275 6.1 6.1 0.00 0.00 0.00 42 1006.3
20260505085357 65 285 5.2 7.0 0.00 0.00 0.00 39 1006.2
20260505084855 65 288 5.2 7.8 0.00 0.00 0.00 40 1006.7
20260505084353 64 287 4.3 4.3 0.00 0.00 0.00 41 1006.6
20260505083850 65 296 2.6 4.3 0.00 0.00 0.00 40 1006.7
20260505083348 64 349 3.5 4.3 0.00 0.00 0.00 41 1006.3
20260505082844 63 339 3.5 6.1 0.00 0.00 0.00 43 1006.5
20260505082340 63 307 4.3 7.0 0.00 0.00 0.00 43 1006.5
20260505081837 64 300 5.2 8.7 0.00 0.00 0.00 41 1006.3
20260505081333 65 276 6.1 7.0 0.00 0.00 0.00 40 1006.3
20260505080830 65 274 6.1 8.7 0.00 0.00 0.00 40 1006.5
20260505080326 65 219 7.0 11.3 0.00 0.00 0.00 39 1006.5
20260505075821 64 267 5.2 7.0 0.00 0.00 0.00 41 1006.6
20260505075319 66 256 2.6 7.8 0.00 0.00 0.00 37 1006.6
20260505074816 63 233 6.1 6.1 0.00 0.00 0.00 41 1006.2
20260505074313 62 236 4.3 5.2 0.00 0.00 0.00 43 1006.3
20260505073810 62 215 5.2 6.1 0.00 0.00 0.00 43 1006.7
20260505073308 62 227 2.6 3.5 0.00 0.00 0.00 42 1006.3
20260505072805 62 226 3.5 4.3 0.00 0.00 0.00 44 1006.6
20260505072301 61 274 3.5 4.3 0.00 0.00 0.00 44 1006.5
20260505071757 62 220 3.5 5.2 0.00 0.00 0.00 44 1006.5
20260505071254 62 232 4.3 5.2 0.00 0.00 0.00 44 1006.6
20260505070751 62 233 6.1 7.0 0.00 0.00 0.00 45 1006.3
20260505070248 62 217 6.1 6.1 0.00 0.00 0.00 45 1006.6
20260505065743 61 249 4.3 7.0 0.00 0.00 0.00 46 1006.2
20260505065240 60 232 4.3 5.2 0.00 0.00 0.00 48 1006.3
20260505064737 61 214 3.5 4.3 0.00 0.00 0.00 46 1006.3
20260505064235 62 237 2.6 4.3 0.00 0.00 0.00 45 1006.1
20260505063732 63 224 4.3 6.1 0.00 0.00 0.00 44 1006.1
20260505063228 62 215 4.3 5.2 0.00 0.00 0.00 46 1006.5
20260505062725 62 216 4.3 6.1 0.00 0.00 0.00 47 1006.2
20260505062223 62 218 5.2 6.1 0.00 0.00 0.00 47 1006.1
20260505061719 63 229 4.3 4.3 0.00 0.00 0.00 45 1006.1
20260505061217 65 272 2.6 5.2 0.00 0.00 0.00 42 1006.0
20260505060714 65 290 2.6 5.2 0.00 0.00 0.00 41 1006.0
20260505060211 65 290 4.3 6.1 0.00 0.00 0.00 42 1006.0
20260505055707 64 303 3.5 4.3 0.00 0.00 0.00 43 1006.0
20260505055203 64 301 1.7 4.3 0.00 0.00 0.00 44 1006.0
20260505054701 64 316 3.5 5.2 0.00 0.00 0.00 44 1005.9
20260505054159 65 292 3.5 6.1 0.00 0.00 0.00 44 1005.9
20260505053656 66 286 4.3 7.8 0.00 0.00 0.00 44 1006.1
20260505053152 65 300 6.1 7.0 0.00 0.00 0.00 44 1005.9
20260505052649 65 284 2.6 4.3 0.00 0.00 0.00 45 1005.8
20260505052147 65 323 2.6 4.3 0.00 0.00 0.00 45 1005.9
20260505051643 64 295 5.2 5.2 0.00 0.00 0.00 46 1005.9
20260505051142 63 303 2.6 2.6 0.00 0.00 0.00 51 1005.8
20260505050639 63 69 0.0 1.7 0.00 0.00 0.00 51 1005.7
20260505050137 65 335 1.7 4.3 0.00 0.00 0.00 46 1005.8
20260505041607 67 300 2.6 3.5 0.00 0.00 0.00 44 1005.2
20260505041104 68 298 2.6 3.5 0.00 0.00 0.00 43 1005.2
20260505040601 68 273 4.3 4.3 0.00 0.00 0.00 43 1005.0
20260505040059 69 291 3.5 4.3 0.00 0.00 0.00 41 1005.2
20260505035555 69 333 3.5 5.2 0.00 0.00 0.00 40 1004.8
20260505035051 69 316 2.6 6.1 0.00 0.00 0.00 40 1004.7
20260505034548 69 319 4.3 7.8 0.00 0.00 0.00 40 1004.8
20260505034045 70 321 5.2 7.0 0.00 0.00 0.00 39 1005.0
20260505033542 70 347 3.5 5.2 0.00 0.00 0.00 39 1004.8
20260505033040 70 330 4.3 7.8 0.00 0.00 0.00 39 1004.7
20260505032538 70 323 7.0 9.6 0.00 0.00 0.00 39 1005.0
20260505032034 70 316 6.1 7.8 0.00 0.00 0.00 39 1004.7
20260505031531 71 320 7.8 9.6 0.00 0.00 0.00 37 1004.4
20260505031027 71 322 5.2 8.7 0.00 0.00 0.00 37 1004.5
20260505030524 72 310 4.3 7.8 0.00 0.00 0.00 37 1004.4
20260505030021 73 293 2.6 7.0 0.00 0.00 0.00 36 1004.3
20260505025516 74 303 5.2 8.7 0.00 0.00 0.00 34 1004.1
20260505025016 75 302 4.3 10.4 0.00 0.00 0.00 33 1004.4
20260505024512 75 299 7.0 9.6 0.00 0.00 0.00 33 1004.2
20260505024009 75 333 3.5 10.4 0.00 0.00 0.00 33 1004.3
20260505023506 76 322 9.6 14.8 0.00 0.00 0.00 32 1004.2
20260505023003 75 328 4.3 5.2 0.00 0.00 0.00 35 1004.3
20260505022501 76 325 3.5 7.8 0.00 0.00 0.00 33 1004.0
20260505021958 77 352 2.6 3.5 0.00 0.00 0.00 31 1004.1
20260505021454 78 45 0.9 4.3 0.00 0.00 0.00 30 1003.9
20260505020950 78 357 2.6 2.6 0.00 0.00 0.00 30 1003.9
20260505020445 79 5 2.6 2.6 0.00 0.00 0.00 29 1004.1
20260505015943 80 7 3.5 3.5 0.00 0.00 0.00 28 1003.9
20260505015440 81 344 2.6 2.6 0.00 0.00 0.00 27 1003.9
20260505014937 81 4 1.7 4.3 0.00 0.00 0.00 27 1004.0
20260505014434 81 356 2.6 3.5 0.00 0.00 0.00 27 1003.8
20260505013931 81 9 1.7 2.6 0.00 0.00 0.00 27 1003.9
20260505013428 81 8 1.7 2.6 0.00 0.00 0.00 26 1003.8
20260505012926 82 350 2.6 3.5 0.00 0.00 0.00 26 1003.9
20260505012424 82 358 2.6 3.5 0.00 0.00 0.00 25 1004.0
20260505011919 82 358 1.7 4.3 0.00 0.00 0.00 25 1004.1
20260505011416 83 335 3.5 4.3 0.00 0.00 0.00 25 1004.2
20260505010913 83 337 2.6 5.2 0.00 0.00 0.00 24 1004.2
20260505010409 83 0 2.6 5.2 0.00 0.00 0.00 24 1004.0
20260505005904 83 15 1.7 4.3 0.00 0.00 0.00 23 1004.3
20260505005402 84 341 4.3 4.3 0.00 0.00 0.00 23 1003.9
20260505004859 83 348 1.7 6.1 0.00 0.00 0.00 25 1004.3